When you browse on this site, cookies collect data to enhance your experience and personalize the content and advertising you see.
Visit our Privacy Policy to learn more. By continuing to use the site, you agree to this use of cookies and data.
  • en Suisse
  • Liste des pays
  • À 7 jours
  • Température de l'eau
  • Carte météo
  • Widgets météo
  • user-avatar
    Se connecter

    Météo par heure à Yanggu

    Ce jour, 31 Mai, Dimanche

    Heure Température Précipitation Vent Pression Humidité
    00:00 +17°C° 0 mm 3 m/s 754 mmHg 93%
    01:00 +17°C° 0 mm 2 m/s 754 mmHg 95%
    02:00 +16°C° 0 mm 2 m/s 753 mmHg 97%
    03:00 +16°C° 0 mm 2 m/s 753 mmHg 97%
    04:00 +16°C° 0 mm 2 m/s 754 mmHg 97%
    05:00 +16°C° 0 mm 2 m/s 754 mmHg 97%
    06:00 +18°C° 0 mm 3 m/s 753 mmHg 88%
    07:00 +20°C° 0 mm 3 m/s 753 mmHg 80%
    08:00 +22°C° 0 mm 3 m/s 753 mmHg 71%
    09:00 +26°C° 0 mm 3 m/s 753 mmHg 61%
    10:00 +28°C° 0 mm 3 m/s 753 mmHg 52%
    11:00 +31°C° 0 mm 3 m/s 753 mmHg 43%
    12:00 +34°C° 0 mm 4 m/s 752 mmHg 36%
    13:00 +35°C° 0 mm 4 m/s 751 mmHg 29%
    14:00 +37°C° 0 mm 4 m/s 750 mmHg 23%
    15:00 +37°C° 0 mm 4 m/s 750 mmHg 21%
    16:00 +37°C° 0 mm 4 m/s 750 mmHg 20%
    17:00 +37°C° 0 mm 5 m/s 750 mmHg 19%
    18:00 +34°C° 0 mm 4 m/s 751 mmHg 18%
    19:00 +32°C° 0 mm 4 m/s 751 mmHg 17%
    20:00 +28°C° 0 mm 3 m/s 751 mmHg 16%
    21:00 +28°C° 0 mm 4 m/s 752 mmHg 17%
    22:00 +27°C° 0 mm 4 m/s 752 mmHg 18%
    23:00 +26°C° 0 mm 4 m/s 753 mmHg 18%

    Demain, 1 Juin, Lundi

    Heure Température Précipitation Vent Pression Humidité
    00:00 +25°C° 0 mm 4 m/s 753 mmHg 19%
    01:00 +24°C° 0 mm 3 m/s 753 mmHg 19%
    02:00 +24°C° 0 mm 3 m/s 752 mmHg 19%
    03:00 +22°C° 0 mm 3 m/s 753 mmHg 22%
    04:00 +22°C° 0 mm 3 m/s 753 mmHg 25%
    05:00 +22°C° 0 mm 3 m/s 753 mmHg 27%
    06:00 +25°C° 0 mm 3 m/s 753 mmHg 32%
    07:00 +27°C° 0 mm 3 m/s 752 mmHg 37%
    08:00 +29°C° 0 mm 3 m/s 752 mmHg 42%
    09:00 +31°C° 0 mm 3 m/s 752 mmHg 38%
    10:00 +35°C° 0 mm 3 m/s 752 mmHg 33%
    11:00 +37°C° 0 mm 3 m/s 751 mmHg 28%
    12:00 +38°C° 0 mm 4 m/s 750 mmHg 24%
    13:00 +41°C° 0 mm 6 m/s 749 mmHg 20%
    14:00 +43°C° 0 mm 7 m/s 748 mmHg 16%
    15:00 +43°C° 0 mm 7 m/s 747 mmHg 17%
    16:00 +43°C° 0 mm 7 m/s 747 mmHg 17%
    17:00 +43°C° 0 mm 8 m/s 746 mmHg 17%
    18:00 +40°C° 0 mm 7 m/s 746 mmHg 18%
    19:00 +38°C° 0 mm 6 m/s 746 mmHg 19%
    20:00 +35°C° 0 mm 5 m/s 745 mmHg 20%
    21:00 +34°C° 0 mm 5 m/s 746 mmHg 23%
    22:00 +33°C° 0 mm 4 m/s 747 mmHg 27%
    23:00 +32°C° 0 mm 4 m/s 747 mmHg 30%

    Après-demain, 2 Juin, Mardi

    Heure Température Précipitation Vent Pression Humidité
    00:00 +29°C° 0 mm 3 m/s 747 mmHg 31%
    01:00 +28°C° 0 mm 3 m/s 747 mmHg 31%
    02:00 +27°C° 0 mm 2 m/s 747 mmHg 32%
    03:00 +26°C° 0 mm 2 m/s 747 mmHg 30%
    04:00 +26°C° 0 mm 2 m/s 748 mmHg 29%
    05:00 +25°C° 0 mm 2 m/s 748 mmHg 28%
    06:00 +27°C° 0 mm 2 m/s 748 mmHg 24%
    07:00 +29°C° 0 mm 2 m/s 748 mmHg 21%
    08:00 +31°C° 0 mm 2 m/s 748 mmHg 18%
    09:00 +34°C° 0 mm 2 m/s 748 mmHg 15%
    10:00 +36°C° 0 mm 2 m/s 748 mmHg 13%
    11:00 +38°C° 0 mm 3 m/s 748 mmHg 11%
    12:00 +39°C° 0 mm 3 m/s 748 mmHg 10%
    13:00 +39°C° 0 mm 2 m/s 747 mmHg 9%
    14:00 +40°C° 0 mm 2 m/s 747 mmHg 8%
    15:00 +40°C° 0 mm 2 m/s 746 mmHg 8%
    16:00 +40°C° 0 mm 2 m/s 746 mmHg 7%
    17:00 +41°C° 0 mm 2 m/s 746 mmHg 7%
    18:00 +38°C° 0 mm 2 m/s 746 mmHg 8%
    19:00 +36°C° 0 mm 2 m/s 746 mmHg 9%
    20:00 +34°C° 0 mm 2 m/s 746 mmHg 10%
    21:00 +32°C° 0 mm 2 m/s 746 mmHg 11%
    22:00 +31°C° 0 mm 3 m/s 746 mmHg 12%
    23:00 +30°C° 0 mm 3 m/s 746 mmHg 13%

    3 Juin, Mercredi

    Heure Température Précipitation Vent Pression Humidité
    00:00 +29°C° 0 mm 3 m/s 746 mmHg 13%
    01:00 +29°C° 0 mm 3 m/s 746 mmHg 14%
    02:00 +28°C° 0 mm 3 m/s 745 mmHg 15%
    03:00 +27°C° 0 mm 3 m/s 745 mmHg 15%
    04:00 +27°C° 0 mm 3 m/s 745 mmHg 16%
    05:00 +26°C° 0 mm 3 m/s 745 mmHg 16%
    06:00 +28°C° 0 mm 3 m/s 745 mmHg 15%
    07:00 +31°C° 0 mm 3 m/s 746 mmHg 14%
    08:00 +34°C° 0 mm 3 m/s 746 mmHg 13%
    09:00 +37°C° 0 mm 3 m/s 746 mmHg 11%
    10:00 +39°C° 0 mm 3 m/s 746 mmHg 9%
    11:00 +43°C° 0 mm 3 m/s 746 mmHg 7%
    12:00 +44°C° 0 mm 3 m/s 745 mmHg 6%
    13:00 +45°C° 0 mm 3 m/s 745 mmHg 6%
    14:00 +47°C° 0 mm 4 m/s 744 mmHg 5%
    15:00 +47°C° 0 mm 4 m/s 744 mmHg 5%
    16:00 +45°C° 0 mm 4 m/s 743 mmHg 6%
    17:00 +45°C° 0 mm 4 m/s 743 mmHg 6%
    18:00 +43°C° 0 mm 4 m/s 743 mmHg 8%
    19:00 +40°C° 0 mm 4 m/s 744 mmHg 10%
    20:00 +36°C° 0 mm 4 m/s 744 mmHg 11%
    21:00 +35°C° 0 mm 5 m/s 745 mmHg 15%
    22:00 +33°C° 0 mm 5 m/s 745 mmHg 19%
    23:00 +32°C° 0 mm 5 m/s 746 mmHg 23%

    4 Juin, Jeudi

    Heure Température Précipitation Vent Pression Humidité
    00:00 +30°C° 0 mm 5 m/s 746 mmHg 29%
    01:00 +30°C° 0 mm 4 m/s 746 mmHg 34%
    02:00 +29°C° 0 mm 4 m/s 746 mmHg 40%
    03:00 +29°C° 0 mm 4 m/s 745 mmHg 45%
    04:00 +28°C° 0 mm 4 m/s 745 mmHg 50%
    05:00 +28°C° 0 mm 4 m/s 745 mmHg 55%
    06:00 +30°C° 0 mm 4 m/s 745 mmHg 49%
    07:00 +33°C° 0 mm 5 m/s 745 mmHg 43%
    08:00 +35°C° 0 mm 6 m/s 746 mmHg 37%
    09:00 +39°C° 0 mm 6 m/s 745 mmHg 30%
    10:00 +43°C° 0 mm 7 m/s 745 mmHg 22%
    11:00 +45°C° 0 mm 7 m/s 745 mmHg 15%
    12:00 +46°C° 0 mm 7 m/s 744 mmHg 13%
    13:00 +47°C° 0 mm 6 m/s 743 mmHg 12%
    14:00 +48°C° 0 mm 6 m/s 743 mmHg 10%
    15:00 +47°C° 0 mm 7 m/s 742 mmHg 11%
    16:00 +46°C° 0 mm 7 m/s 742 mmHg 11%
    17:00 +46°C° 0 mm 7 m/s 742 mmHg 12%
    18:00 +44°C° 0 mm 7 m/s 742 mmHg 16%
    19:00 +41°C° 0 mm 8 m/s 742 mmHg 19%
    20:00 +39°C° 0 mm 8 m/s 743 mmHg 23%
    21:00 +37°C° 0 mm 8 m/s 743 mmHg 28%
    22:00 +35°C° 0 mm 9 m/s 744 mmHg 32%
    23:00 +33°C° 0 mm 9 m/s 745 mmHg 37%

    5 Juin, Vendredi

    Heure Température Précipitation Vent Pression Humidité
    00:00 +32°C° 0 mm 7 m/s 745 mmHg 38%
    01:00 +29°C° 0 mm 6 m/s 745 mmHg 40%
    02:00 +28°C° 0 mm 5 m/s 746 mmHg 42%
    03:00 +27°C° 0 mm 4 m/s 746 mmHg 47%
    04:00 +26°C° 0 mm 3 m/s 746 mmHg 52%
    05:00 +25°C° 0 mm 3 m/s 747 mmHg 56%
    06:00 +26°C° 0 mm 3 m/s 747 mmHg 51%
    07:00 +28°C° 0 mm 3 m/s 748 mmHg 46%
    08:00 +30°C° 0 mm 4 m/s 748 mmHg 40%
    09:00 +32°C° 0 mm 5 m/s 748 mmHg 35%
    10:00 +34°C° 0 mm 5 m/s 748 mmHg 30%
    11:00 +35°C° 0 mm 6 m/s 748 mmHg 24%
    12:00 +36°C° 0 mm 6 m/s 748 mmHg 23%
    13:00 +38°C° 0 mm 7 m/s 748 mmHg 21%
    14:00 +39°C° 0 mm 7 m/s 748 mmHg 19%
    15:00 +38°C° 0 mm 7 m/s 747 mmHg 20%
    16:00 +38°C° 0 mm 7 m/s 747 mmHg 20%
    17:00 +36°C° 0 mm 6 m/s 747 mmHg 20%
    18:00 +34°C° 0 mm 6 m/s 748 mmHg 24%
    19:00 +32°C° 0 mm 5 m/s 749 mmHg 28%
    20:00 +30°C° 0 mm 4 m/s 749 mmHg 31%
    21:00 +28°C° 0 mm 4 m/s 750 mmHg 36%
    22:00 +27°C° 0 mm 4 m/s 751 mmHg 41%
    23:00 +26°C° 0 mm 3 m/s 751 mmHg 45%
    Voir plus